When you browse on this site, cookies collect data to enhance your experience and personalize the content and advertising you see.
Visit our Privacy Policy to learn more. By continuing to use the site, you agree to this use of cookies and data.
  • In Hungary
  • List of Countries
  • For 7 days
  • Water Temperature
  • Satellite Maps
  • Weather Map
  • News
  • Weather Widgets
  • user-avatar
    Login

    Hourly Weather Kaolak

    Today, 11 December, Tuesday

    Time Temperature Precipitation Wind Pressure Humidity
    00:00 +21°C° 0 mm 6 mps 736 mmHg 27%
    01:00 +20°C° 0 mm 6 mps 736 mmHg 29%
    02:00 +19°C° 0 mm 6 mps 736 mmHg 29%
    03:00 +19°C° 0 mm 6 mps 736 mmHg 28%
    04:00 +19°C° 0 mm 6 mps 736 mmHg 28%
    05:00 +17°C° 0 mm 6 mps 736 mmHg 27%
    06:00 +17°C° 0 mm 6 mps 736 mmHg 26%
    07:00 +19°C° 0 mm 6 mps 737 mmHg 25%
    08:00 +21°C° 0 mm 6 mps 737 mmHg 22%
    09:00 +23°C° 0 mm 6 mps 737 mmHg 20%
    10:00 +26°C° 0 mm 7 mps 738 mmHg 17%
    11:00 +28°C° 0 mm 7 mps 737 mmHg 15%
    12:00 +30°C° 0 mm 7 mps 737 mmHg 14%
    13:00 +33°C° 0 mm 6 mps 736 mmHg 12%
    14:00 +32°C° 0 mm 6 mps 736 mmHg 12%
    15:00 +32°C° 0 mm 6 mps 735 mmHg 12%
    16:00 +32°C° 0 mm 6 mps 735 mmHg 12%
    17:00 +29°C° 0 mm 6 mps 735 mmHg 13%
    18:00 +28°C° 0 mm 5 mps 736 mmHg 15%
    19:00 +26°C° 0 mm 5 mps 736 mmHg 16%
    20:00 +25°C° 0 mm 5 mps 736 mmHg 17%
    21:00 +25°C° 0 mm 5 mps 737 mmHg 17%
    22:00 +23°C° 0 mm 5 mps 737 mmHg 17%
    23:00 +22°C° 0 mm 5 mps 737 mmHg 18%

    Tomorrow, 12 December, Wednesday

    Time Temperature Precipitation Wind Pressure Humidity
    00:00 +22°C° 0 mm 6 mps 737 mmHg 18%
    01:00 +21°C° 0 mm 6 mps 737 mmHg 18%
    02:00 +21°C° 0 mm 6 mps 736 mmHg 18%
    03:00 +20°C° 0 mm 6 mps 736 mmHg 19%
    04:00 +20°C° 0 mm 5 mps 736 mmHg 19%
    05:00 +20°C° 0 mm 5 mps 736 mmHg 19%
    06:00 +19°C° 0 mm 6 mps 737 mmHg 19%
    07:00 +19°C° 0 mm 6 mps 737 mmHg 20%
    08:00 +21°C° 0 mm 6 mps 737 mmHg 18%
    09:00 +24°C° 0 mm 6 mps 737 mmHg 15%
    10:00 +27°C° 0 mm 7 mps 738 mmHg 13%
    11:00 +29°C° 0 mm 6 mps 737 mmHg 12%
    12:00 +32°C° 0 mm 6 mps 737 mmHg 11%
    13:00 +34°C° 0 mm 6 mps 736 mmHg 9%
    14:00 +33°C° 0 mm 6 mps 736 mmHg 9%
    15:00 +33°C° 0 mm 6 mps 735 mmHg 9%
    16:00 +33°C° 0 mm 6 mps 735 mmHg 9%
    17:00 +32°C° 0 mm 6 mps 735 mmHg 10%
    18:00 +29°C° 0 mm 5 mps 735 mmHg 12%
    19:00 +27°C° 0 mm 5 mps 736 mmHg 13%
    20:00 +26°C° 0 mm 5 mps 736 mmHg 14%
    21:00 +25°C° 0 mm 5 mps 737 mmHg 14%
    22:00 +25°C° 0 mm 5 mps 737 mmHg 15%
    23:00 +23°C° 0 mm 5 mps 737 mmHg 15%

    Day after tomorrow, 13 December, Thursday

    Time Temperature Precipitation Wind Pressure Humidity
    00:00 +22°C° 0 mm 5 mps 737 mmHg 15%
    01:00 +22°C° 0 mm 5 mps 736 mmHg 15%
    02:00 +21°C° 0 mm 5 mps 736 mmHg 16%
    03:00 +21°C° 0 mm 5 mps 736 mmHg 16%
    04:00 +20°C° 0 mm 5 mps 736 mmHg 17%
    05:00 +20°C° 0 mm 5 mps 736 mmHg 17%
    06:00 +20°C° 0 mm 5 mps 736 mmHg 17%
    07:00 +19°C° 0 mm 5 mps 737 mmHg 17%
    08:00 +22°C° 0 mm 6 mps 737 mmHg 15%
    09:00 +24°C° 0 mm 6 mps 738 mmHg 13%
    10:00 +28°C° 0 mm 6 mps 738 mmHg 11%
    11:00 +30°C° 0 mm 6 mps 737 mmHg 10%
    12:00 +32°C° 0 mm 6 mps 736 mmHg 8%
    13:00 +34°C° 0 mm 6 mps 735 mmHg 7%
    14:00 +34°C° 0 mm 6 mps 735 mmHg 7%
    15:00 +34°C° 0 mm 6 mps 735 mmHg 6%
    16:00 +34°C° 0 mm 6 mps 734 mmHg 6%
    17:00 +32°C° 0 mm 5 mps 735 mmHg 7%
    18:00 +29°C° 0 mm 5 mps 735 mmHg 8%
    19:00 +27°C° 0 mm 5 mps 736 mmHg 10%
    20:00 +26°C° 0 mm 5 mps 736 mmHg 10%
    21:00 +26°C° 0 mm 5 mps 736 mmHg 11%
    22:00 +25°C° 0 mm 5 mps 737 mmHg 12%
    23:00 +23°C° 0 mm 5 mps 736 mmHg 12%

    14 December, Friday

    Time Temperature Precipitation Wind Pressure Humidity
    00:00 +23°C° 0 mm 5 mps 736 mmHg 13%
    01:00 +22°C° 0 mm 5 mps 736 mmHg 14%
    02:00 +22°C° 0 mm 5 mps 736 mmHg 15%
    03:00 +21°C° 0 mm 5 mps 735 mmHg 16%
    04:00 +21°C° 0 mm 5 mps 735 mmHg 17%
    05:00 +20°C° 0 mm 5 mps 736 mmHg 18%
    06:00 +20°C° 0 mm 5 mps 736 mmHg 18%
    07:00 +20°C° 0 mm 5 mps 737 mmHg 19%
    08:00 +23°C° 0 mm 5 mps 737 mmHg 16%
    09:00 +26°C° 0 mm 6 mps 737 mmHg 14%
    10:00 +29°C° 0 mm 6 mps 738 mmHg 11%
    11:00 +32°C° 0 mm 6 mps 737 mmHg 10%
    12:00 +33°C° 0 mm 6 mps 736 mmHg 8%
    13:00 +35°C° 0 mm 5 mps 735 mmHg 7%
    14:00 +35°C° 0 mm 5 mps 735 mmHg 7%
    15:00 +35°C° 0 mm 5 mps 734 mmHg 7%
    16:00 +35°C° 0 mm 5 mps 734 mmHg 7%
    17:00 +33°C° 0 mm 5 mps 734 mmHg 8%
    18:00 +30°C° 0 mm 5 mps 735 mmHg 9%
    19:00 +28°C° 0 mm 4 mps 735 mmHg 10%
    20:00 +27°C° 0 mm 4 mps 735 mmHg 11%
    21:00 +26°C° 0 mm 4 mps 735 mmHg 12%
    22:00 +26°C° 0 mm 4 mps 736 mmHg 13%
    23:00 +25°C° 0 mm 4 mps 735 mmHg 13%

    15 December, Saturday

    Time Temperature Precipitation Wind Pressure Humidity
    00:00 +23°C° 0 mm 4 mps 735 mmHg 14%
    01:00 +23°C° 0 mm 4 mps 735 mmHg 15%
    02:00 +22°C° 0 mm 4 mps 735 mmHg 15%
    03:00 +22°C° 0 mm 4 mps 735 mmHg 15%
    04:00 +21°C° 0 mm 4 mps 735 mmHg 15%
    05:00 +21°C° 0 mm 4 mps 735 mmHg 15%
    06:00 +21°C° 0 mm 4 mps 735 mmHg 15%
    07:00 +21°C° 0 mm 4 mps 736 mmHg 15%
    08:00 +25°C° 0 mm 5 mps 736 mmHg 13%
    09:00 +27°C° 0 mm 6 mps 736 mmHg 11%
    10:00 +30°C° 0 mm 6 mps 737 mmHg 9%
    11:00 +33°C° 0 mm 6 mps 736 mmHg 9%
    12:00 +34°C° 0 mm 6 mps 735 mmHg 8%
    13:00 +35°C° 0 mm 5 mps 735 mmHg 7%
    14:00 +35°C° 0 mm 5 mps 734 mmHg 7%
    15:00 +35°C° 0 mm 5 mps 734 mmHg 8%
    16:00 +35°C° 0 mm 5 mps 733 mmHg 8%
    17:00 +33°C° 0 mm 5 mps 734 mmHg 9%
    18:00 +30°C° 0 mm 5 mps 734 mmHg 10%
    19:00 +28°C° 0 mm 4 mps 735 mmHg 11%
    20:00 +27°C° 0 mm 4 mps 735 mmHg 11%
    21:00 +26°C° 0 mm 4 mps 735 mmHg 12%
    22:00 +25°C° 0 mm 4 mps 736 mmHg 12%
    23:00 +25°C° 0 mm 4 mps 735 mmHg 13%

    16 December, Sunday

    Time Temperature Precipitation Wind Pressure Humidity
    00:00 +23°C° 0 mm 4 mps 735 mmHg 13%
    01:00 +23°C° 0 mm 4 mps 735 mmHg 13%
    02:00 +22°C° 0 mm 4 mps 735 mmHg 14%
    03:00 +22°C° 0 mm 4 mps 735 mmHg 14%
    04:00 +21°C° 0 mm 4 mps 735 mmHg 14%
    05:00 +21°C° 0 mm 4 mps 735 mmHg 14%
    06:00 +21°C° 0 mm 4 mps 736 mmHg 14%
    07:00 +21°C° 0 mm 4 mps 736 mmHg 13%
    08:00 +23°C° 0 mm 5 mps 736 mmHg 11%
    09:00 +27°C° 0 mm 6 mps 737 mmHg 9%
    10:00 +29°C° 0 mm 7 mps 737 mmHg 7%
    11:00 +30°C° 0 mm 7 mps 736 mmHg 7%
    12:00 +33°C° 0 mm 7 mps 736 mmHg 6%
    13:00 +34°C° 0 mm 7 mps 735 mmHg 6%
    14:00 +34°C° 0 mm 6 mps 735 mmHg 6%
    15:00 +34°C° 0 mm 6 mps 734 mmHg 6%
    16:00 +33°C° 0 mm 6 mps 734 mmHg 6%
    17:00 +30°C° 0 mm 5 mps 734 mmHg 6%
    18:00 +28°C° 0 mm 5 mps 735 mmHg 7%
    19:00 +26°C° 0 mm 5 mps 735 mmHg 8%
    20:00 +26°C° 0 mm 4 mps 735 mmHg 9%
    21:00 +25°C° 0 mm 4 mps 736 mmHg 9%
    22:00 +23°C° 0 mm 4 mps 736 mmHg 10%
    23:00 +22°C° 0 mm 4 mps 736 mmHg 11%
    Show more